When you browse on this site, cookies collect data to enhance your experience and personalize the content and advertising you see.
Visit our Privacy Policy to learn more. By continuing to use the site, you agree to this use of cookies and data.
  • In Sweden
  • List of Countries
  • For 7 days
  • Water Temperature
  • Weather Map
  • Weather Widgets
  • user-avatar
    Login

    Hourly Weather Dobrovillya

    Today, 5 June, Friday

    Time Temperature Precipitation Wind Pressure Humidity
    00:00 +11°C° 0 mm 4 mps 747 mmHg 87%
    01:00 +11°C° 0 mm 4 mps 747 mmHg 89%
    02:00 +10°C° 0 mm 3 mps 747 mmHg 91%
    03:00 +11°C° 0 mm 3 mps 747 mmHg 90%
    04:00 +11°C° 0 mm 4 mps 747 mmHg 89%
    05:00 +11°C° 0 mm 4 mps 747 mmHg 87%
    06:00 +13°C° 0 mm 5 mps 748 mmHg 82%
    07:00 +15°C° 0 mm 6 mps 748 mmHg 77%
    08:00 +16°C° 0 mm 7 mps 748 mmHg 72%
    09:00 +18°C° 0 mm 7 mps 748 mmHg 68%
    10:00 +20°C° 0 mm 7 mps 748 mmHg 64%
    11:00 +21°C° 0 mm 7 mps 748 mmHg 61%
    12:00 +21°C° 0 mm 7 mps 748 mmHg 60%
    13:00 +22°C° 0 mm 7 mps 747 mmHg 59%
    14:00 +23°C° 0 mm 7 mps 747 mmHg 58%
    15:00 +23°C° 0.2 mm 6 mps 747 mmHg 62%
    16:00 +23°C° 0.2 mm 6 mps 747 mmHg 65%
    17:00 +23°C° 0.2 mm 5 mps 747 mmHg 68%
    18:00 +21°C° 0.1 mm 5 mps 747 mmHg 71%
    19:00 +20°C° 0.1 mm 5 mps 748 mmHg 75%
    20:00 +17°C° 0.1 mm 6 mps 748 mmHg 78%
    21:00 +16°C° 0 mm 5 mps 748 mmHg 82%
    22:00 +15°C° 0 mm 5 mps 748 mmHg 85%
    23:00 +14°C° 0 mm 4 mps 749 mmHg 88%

    Tomorrow, 6 June, Saturday

    Time Temperature Precipitation Wind Pressure Humidity
    00:00 +14°C° 0 mm 4 mps 749 mmHg 89%
    01:00 +14°C° 0 mm 4 mps 749 mmHg 90%
    02:00 +14°C° 0 mm 4 mps 749 mmHg 91%
    03:00 +14°C° 0 mm 4 mps 749 mmHg 90%
    04:00 +14°C° 0 mm 4 mps 749 mmHg 89%
    05:00 +14°C° 0 mm 4 mps 749 mmHg 88%
    06:00 +17°C° 0 mm 4 mps 750 mmHg 81%
    07:00 +19°C° 0 mm 4 mps 750 mmHg 75%
    08:00 +21°C° 0 mm 4 mps 750 mmHg 69%
    09:00 +23°C° 0 mm 4 mps 751 mmHg 63%
    10:00 +25°C° 0 mm 4 mps 751 mmHg 58%
    11:00 +27°C° 0 mm 4 mps 751 mmHg 52%
    12:00 +27°C° 0 mm 4 mps 751 mmHg 51%
    13:00 +27°C° 0 mm 4 mps 751 mmHg 50%
    14:00 +28°C° 0 mm 5 mps 751 mmHg 50%
    15:00 +27°C° 0 mm 4 mps 751 mmHg 53%
    16:00 +27°C° 0 mm 4 mps 750 mmHg 56%
    17:00 +26°C° 0 mm 4 mps 750 mmHg 59%
    18:00 +23°C° 0 mm 4 mps 750 mmHg 63%
    19:00 +21°C° 0 mm 3 mps 751 mmHg 67%
    20:00 +19°C° 0 mm 3 mps 751 mmHg 71%
    21:00 +18°C° 0 mm 3 mps 751 mmHg 71%
    22:00 +17°C° 0 mm 2 mps 751 mmHg 71%
    23:00 +16°C° 0 mm 2 mps 751 mmHg 71%

    Day after tomorrow, 7 June, Sunday

    Time Temperature Precipitation Wind Pressure Humidity
    00:00 +16°C° 0 mm 2 mps 751 mmHg 70%
    01:00 +16°C° 0 mm 2 mps 751 mmHg 70%
    02:00 +15°C° 0 mm 2 mps 751 mmHg 70%
    03:00 +16°C° 0 mm 2 mps 751 mmHg 73%
    04:00 +16°C° 0 mm 2 mps 751 mmHg 75%
    05:00 +16°C° 0 mm 2 mps 751 mmHg 78%
    06:00 +19°C° 0 mm 3 mps 751 mmHg 75%
    07:00 +21°C° 0 mm 3 mps 751 mmHg 71%
    08:00 +25°C° 0 mm 4 mps 752 mmHg 68%
    09:00 +26°C° 0 mm 5 mps 752 mmHg 63%
    10:00 +27°C° 0 mm 5 mps 752 mmHg 58%
    11:00 +28°C° 0 mm 6 mps 751 mmHg 53%
    12:00 +29°C° 0 mm 6 mps 751 mmHg 51%
    13:00 +29°C° 0 mm 6 mps 751 mmHg 50%
    14:00 +29°C° 0 mm 6 mps 751 mmHg 48%
    15:00 +29°C° 0 mm 5 mps 751 mmHg 52%
    16:00 +29°C° 0 mm 4 mps 750 mmHg 55%
    17:00 +28°C° 0 mm 4 mps 750 mmHg 58%
    18:00 +26°C° 0 mm 4 mps 750 mmHg 63%
    19:00 +23°C° 0 mm 4 mps 750 mmHg 68%
    20:00 +21°C° 0 mm 4 mps 750 mmHg 72%
    21:00 +21°C° 0 mm 4 mps 750 mmHg 74%
    22:00 +20°C° 0 mm 4 mps 750 mmHg 75%
    23:00 +19°C° 0 mm 4 mps 750 mmHg 77%

    8 June, Monday

    Time Temperature Precipitation Wind Pressure Humidity
    00:00 +19°C° 0 mm 4 mps 750 mmHg 76%
    01:00 +19°C° 0 mm 4 mps 750 mmHg 75%
    02:00 +18°C° 0 mm 4 mps 749 mmHg 74%
    03:00 +18°C° 0 mm 4 mps 749 mmHg 75%
    04:00 +18°C° 0 mm 4 mps 749 mmHg 76%
    05:00 +18°C° 0 mm 4 mps 749 mmHg 77%
    06:00 +21°C° 0 mm 5 mps 749 mmHg 71%
    07:00 +23°C° 0 mm 6 mps 750 mmHg 65%
    08:00 +26°C° 0 mm 6 mps 750 mmHg 59%
    09:00 +27°C° 0 mm 7 mps 750 mmHg 55%
    10:00 +29°C° 0 mm 7 mps 750 mmHg 50%
    11:00 +30°C° 0 mm 7 mps 750 mmHg 46%
    12:00 +30°C° 0 mm 7 mps 749 mmHg 46%
    13:00 +30°C° 0 mm 7 mps 749 mmHg 46%
    14:00 +32°C° 0 mm 7 mps 749 mmHg 46%
    15:00 +30°C° 0 mm 6 mps 749 mmHg 50%
    16:00 +30°C° 0 mm 5 mps 748 mmHg 54%
    17:00 +29°C° 0 mm 5 mps 748 mmHg 59%
    18:00 +27°C° 0 mm 4 mps 748 mmHg 62%
    19:00 +26°C° 0 mm 4 mps 748 mmHg 65%
    20:00 +23°C° 0 mm 4 mps 749 mmHg 69%
    21:00 +22°C° 0 mm 4 mps 749 mmHg 70%
    22:00 +21°C° 0 mm 4 mps 749 mmHg 72%
    23:00 +21°C° 0 mm 4 mps 749 mmHg 74%

    9 June, Tuesday

    Time Temperature Precipitation Wind Pressure Humidity
    00:00 +20°C° 0 mm 4 mps 749 mmHg 75%
    01:00 +20°C° 0 mm 4 mps 749 mmHg 76%
    02:00 +19°C° 0 mm 4 mps 748 mmHg 77%
    03:00 +19°C° 0 mm 4 mps 748 mmHg 78%
    04:00 +19°C° 0 mm 4 mps 749 mmHg 78%
    05:00 +19°C° 0 mm 4 mps 749 mmHg 79%
    06:00 +21°C° 0 mm 5 mps 749 mmHg 73%
    07:00 +25°C° 0 mm 5 mps 749 mmHg 68%
    08:00 +27°C° 0 mm 5 mps 749 mmHg 62%
    09:00 +28°C° 0 mm 6 mps 749 mmHg 57%
    10:00 +29°C° 0 mm 6 mps 749 mmHg 51%
    11:00 +32°C° 0 mm 6 mps 749 mmHg 45%
    12:00 +32°C° 0 mm 6 mps 749 mmHg 43%
    13:00 +32°C° 0 mm 6 mps 749 mmHg 41%
    14:00 +33°C° 0 mm 5 mps 749 mmHg 39%
    15:00 +32°C° 0 mm 5 mps 749 mmHg 44%
    16:00 +32°C° 0 mm 4 mps 748 mmHg 48%
    17:00 +30°C° 0 mm 3 mps 748 mmHg 53%
    18:00 +28°C° 0 mm 3 mps 748 mmHg 55%
    19:00 +26°C° 0 mm 3 mps 748 mmHg 57%
    20:00 +22°C° 0 mm 3 mps 748 mmHg 59%
    21:00 +22°C° 0 mm 3 mps 749 mmHg 59%
    22:00 +21°C° 0 mm 3 mps 749 mmHg 60%
    23:00 +20°C° 0 mm 2 mps 749 mmHg 61%

    10 June, Wednesday

    Time Temperature Precipitation Wind Pressure Humidity
    00:00 +20°C° 0 mm 3 mps 749 mmHg 60%
    01:00 +19°C° 0 mm 3 mps 749 mmHg 60%
    02:00 +19°C° 0 mm 3 mps 749 mmHg 60%
    03:00 +19°C° 0 mm 3 mps 749 mmHg 62%
    04:00 +19°C° 0 mm 3 mps 749 mmHg 65%
    05:00 +19°C° 0 mm 4 mps 749 mmHg 67%
    06:00 +21°C° 0 mm 4 mps 749 mmHg 64%
    07:00 +23°C° 0 mm 4 mps 749 mmHg 60%
    08:00 +27°C° 0 mm 4 mps 749 mmHg 57%
    09:00 +28°C° 0 mm 4 mps 749 mmHg 52%
    10:00 +30°C° 0 mm 5 mps 749 mmHg 48%
    11:00 +32°C° 0 mm 5 mps 749 mmHg 44%
    12:00 +33°C° 0 mm 5 mps 749 mmHg 41%
    13:00 +33°C° 0 mm 5 mps 749 mmHg 38%
    14:00 +34°C° 0 mm 5 mps 749 mmHg 34%
    15:00 +33°C° 0 mm 5 mps 749 mmHg 40%
    16:00 +32°C° 0 mm 4 mps 748 mmHg 46%
    17:00 +31°C° 0 mm 3 mps 748 mmHg 52%
    18:00 +29°C° 0 mm 3 mps 748 mmHg 57%
    19:00 +26°C° 0 mm 3 mps 748 mmHg 62%
    20:00 +24°C° 0 mm 3 mps 748 mmHg 67%
    21:00 +22°C° 0 mm 3 mps 748 mmHg 66%
    22:00 +22°C° 0 mm 4 mps 749 mmHg 65%
    23:00 +21°C° 0 mm 4 mps 749 mmHg 64%
    Show more